Flag for U.S.A. Weather past 2 weeks in Bakersfield, California, U.S.A.

Now
89 °F

Sunny.


Feels Like: 85 °F
Forecast: 63 / 90 °F
Wind: 8 mph from Northwest

Location: Meadows Field

Current Time: May 28, 2015 at 4:33:02 PM

Latest Report: May 28, 2015 at 3:54 PM


Visibility: 10 mi

Pressure: 29.87 "Hg

Humidity: 19%

Dew point: 41 °F

Location of BakersfieldLocation

Historic Weather in Bakersfield — Graph

°F

Bakersfield temperature yesterday

Maximum temperature yesterday: 87 °F (at 3:54 PM)
Minimum temperature yesterday: 61 °F (at 4:54 AM)
Average temperature yesterday: 74 °F

Past Weeks' High & Low Weather Summary

 TemperatureHumidityPressure
High87 °F (May 25, 4:54 PM)90% (May 22, 6:54 AM)30.07 "Hg (May 22, 6:54 AM)
Low51 °F (May 16, 5:54 AM)13% (May 13, 3:54 PM)29.74 "Hg (May 14, 4:54 PM)
Average67 °F48%29.91 "Hg
* Reported May 13 1:54 PM — May 28 1:54 PM, Bakersfield, Weather by CustomWeather, © 2015

Note: Actual official high and low records may vary slightly from our data, if they occured in-between our weather recording intervals... More about our weather records

Advertising

Bakersfield weather history for previous 24 hours

 ConditionsComfort  
Time TempWeatherWind HumidityBarometerVisibility
1:54 PM
Thu, May 28
87 °FSunny.3 mph24%29.91 "Hg10 mi
12:54 PM84 °FSunny.6 mph26%29.93 "Hg10 mi
11:54 AM80 °FSunny.6 mph34%29.95 "Hg10 mi
10:54 AM79 °FSunny.5 mph36%29.97 "Hg10 mi
9:54 AMN/A6 mphN/A29.99 "HgN/A
8:54 AM70 °FSunny.3 mph47%29.97 "Hg10 mi
7:54 AM68 °FSunny.5 mph51%29.97 "Hg10 mi
6:54 AM65 °FSunny.5 mph56%29.96 "Hg10 mi
5:54 AM65 °FClear.3 mph56%29.93 "Hg10 mi
4:54 AM65 °FClear.6 mph51%29.92 "Hg10 mi
3:54 AM63 °FClear.6 mph52%29.91 "Hg10 mi
2:54 AM64 °FClear.7 mph49%29.91 "Hg10 mi
1:54 AM68 °FClear.5 mph42%29.91 "Hg10 mi
12:54 AM68 °FClear.7 mph49%29.91 "Hg10 mi
11:54 PM
Wed, May 27
73 °FClear.5 mph32%29.92 "Hg10 mi
10:54 PM78 °FClear.7 mph25%29.90 "Hg10 mi
9:54 PM77 °FClear.7 mph32%29.90 "Hg10 mi
8:54 PM81 °FSunny.5 mph28%29.88 "Hg10 mi
7:54 PM84 °FSunny.6 mph26%29.86 "Hg10 mi
6:54 PM86 °FSunny.8 mph24%29.85 "Hg10 mi
5:54 PM87 °FSunny.12 mph22%29.85 "Hg10 mi
4:54 PM87 °FSunny.13 mph23%29.86 "Hg10 mi
Weather by CustomWeather, © 2015

See weather overviewHow to use our weather pages